Index of /20260502/WXO-DD/model_caps/3km/12/012
Name Last modified Size Description
Parent Directory -
20260502T12Z_MSC_CAPS_AbsoluteVorticity_IsbL-0250_RLatLon0.03_PT012H.grib2 2026-05-02 18:06 1.1M
20260502T12Z_MSC_CAPS_AbsoluteVorticity_IsbL-0500_RLatLon0.03_PT012H.grib2 2026-05-02 18:06 1.1M
20260502T12Z_MSC_CAPS_AbsoluteVorticity_IsbL-0700_RLatLon0.03_PT012H.grib2 2026-05-02 18:06 1.0M
20260502T12Z_MSC_CAPS_AbsoluteVorticity_IsbL-0850_RLatLon0.03_PT012H.grib2 2026-05-02 18:06 1.2M
20260502T12Z_MSC_CAPS_AbsoluteVorticity_IsbL-1000_RLatLon0.03_PT012H.grib2 2026-05-02 18:06 1.3M
20260502T12Z_MSC_CAPS_AirDensity_AGL-120m_RLatLon0.03_PT012H.grib2 2026-05-02 18:06 1.4M
20260502T12Z_MSC_CAPS_AirDensity_AGL-40m_RLatLon0.03_PT012H.grib2 2026-05-02 18:06 1.4M
20260502T12Z_MSC_CAPS_AirDensity_AGL-80m_RLatLon0.03_PT012H.grib2 2026-05-02 18:06 1.4M
20260502T12Z_MSC_CAPS_AirTemp_AGL-120m_RLatLon0.03_PT012H.grib2 2026-05-02 18:06 1.4M
20260502T12Z_MSC_CAPS_AirTemp_AGL-2m_RLatLon0.03_PT012H.grib2 2026-05-02 18:06 1.7M
20260502T12Z_MSC_CAPS_AirTemp_AGL-40m_RLatLon0.03_PT012H.grib2 2026-05-02 18:06 1.5M
20260502T12Z_MSC_CAPS_AirTemp_AGL-80m_RLatLon0.03_PT012H.grib2 2026-05-02 18:06 1.4M
20260502T12Z_MSC_CAPS_AirTemp_IsbL-0050_RLatLon0.03_PT012H.grib2 2026-05-02 18:06 695K
20260502T12Z_MSC_CAPS_AirTemp_IsbL-0100_RLatLon0.03_PT012H.grib2 2026-05-02 18:06 736K
20260502T12Z_MSC_CAPS_AirTemp_IsbL-0150_RLatLon0.03_PT012H.grib2 2026-05-02 18:06 759K
20260502T12Z_MSC_CAPS_AirTemp_IsbL-0175_RLatLon0.03_PT012H.grib2 2026-05-02 18:06 775K
20260502T12Z_MSC_CAPS_AirTemp_IsbL-0200_RLatLon0.03_PT012H.grib2 2026-05-02 18:06 791K
20260502T12Z_MSC_CAPS_AirTemp_IsbL-0225_RLatLon0.03_PT012H.grib2 2026-05-02 18:06 791K
20260502T12Z_MSC_CAPS_AirTemp_IsbL-0250_RLatLon0.03_PT012H.grib2 2026-05-02 18:06 1.0M
20260502T12Z_MSC_CAPS_AirTemp_IsbL-0275_RLatLon0.03_PT012H.grib2 2026-05-02 18:06 1.0M
20260502T12Z_MSC_CAPS_AirTemp_IsbL-0300_RLatLon0.03_PT012H.grib2 2026-05-02 18:06 1.0M
20260502T12Z_MSC_CAPS_AirTemp_IsbL-0350_RLatLon0.03_PT012H.grib2 2026-05-02 18:06 752K
20260502T12Z_MSC_CAPS_AirTemp_IsbL-0400_RLatLon0.03_PT012H.grib2 2026-05-02 18:06 755K
20260502T12Z_MSC_CAPS_AirTemp_IsbL-0450_RLatLon0.03_PT012H.grib2 2026-05-02 18:06 767K
20260502T12Z_MSC_CAPS_AirTemp_IsbL-0500_RLatLon0.03_PT012H.grib2 2026-05-02 18:06 784K
20260502T12Z_MSC_CAPS_AirTemp_IsbL-0550_RLatLon0.03_PT012H.grib2 2026-05-02 18:06 954K
20260502T12Z_MSC_CAPS_AirTemp_IsbL-0600_RLatLon0.03_PT012H.grib2 2026-05-02 18:06 972K
20260502T12Z_MSC_CAPS_AirTemp_IsbL-0650_RLatLon0.03_PT012H.grib2 2026-05-02 18:06 1.0M
20260502T12Z_MSC_CAPS_AirTemp_IsbL-0700_RLatLon0.03_PT012H.grib2 2026-05-02 18:06 1.0M
20260502T12Z_MSC_CAPS_AirTemp_IsbL-0750_RLatLon0.03_PT012H.grib2 2026-05-02 18:06 1.0M
20260502T12Z_MSC_CAPS_AirTemp_IsbL-0800_RLatLon0.03_PT012H.grib2 2026-05-02 18:06 1.0M
20260502T12Z_MSC_CAPS_AirTemp_IsbL-0850_RLatLon0.03_PT012H.grib2 2026-05-02 18:06 1.0M
20260502T12Z_MSC_CAPS_AirTemp_IsbL-0875_RLatLon0.03_PT012H.grib2 2026-05-02 18:06 1.0M
20260502T12Z_MSC_CAPS_AirTemp_IsbL-0900_RLatLon0.03_PT012H.grib2 2026-05-02 18:06 1.0M
20260502T12Z_MSC_CAPS_AirTemp_IsbL-0925_RLatLon0.03_PT012H.grib2 2026-05-02 18:06 1.0M
20260502T12Z_MSC_CAPS_AirTemp_IsbL-0950_RLatLon0.03_PT012H.grib2 2026-05-02 18:06 1.1M
20260502T12Z_MSC_CAPS_AirTemp_IsbL-0970_RLatLon0.03_PT012H.grib2 2026-05-02 18:06 1.1M
20260502T12Z_MSC_CAPS_AirTemp_IsbL-0985_RLatLon0.03_PT012H.grib2 2026-05-02 18:06 1.0M
20260502T12Z_MSC_CAPS_AirTemp_IsbL-1000_RLatLon0.03_PT012H.grib2 2026-05-02 18:06 1.0M
20260502T12Z_MSC_CAPS_AirTemp_IsbL-1015_RLatLon0.03_PT012H.grib2 2026-05-02 18:06 1.0M
20260502T12Z_MSC_CAPS_Albedo_Sfc_RLatLon0.03_PT012H.grib2 2026-05-02 18:06 2.7M
20260502T12Z_MSC_CAPS_CAPE_Sfc_RLatLon0.03_PT012H.grib2 2026-05-02 18:06 148K
20260502T12Z_MSC_CAPS_CloudWater_EAtm_RLatLon0.03_PT012H.grib2 2026-05-02 18:06 1.4M
20260502T12Z_MSC_CAPS_ConvectivePrecip-Accum_Sfc_RLatLon0.03_PT012H.grib2 2026-05-02 18:06 2.5M
20260502T12Z_MSC_CAPS_DewPointDepression_AGL-120m_RLatLon0.03_PT012H.grib2 2026-05-02 18:06 2.0M
20260502T12Z_MSC_CAPS_DewPointDepression_AGL-2m_RLatLon0.03_PT012H.grib2 2026-05-02 18:06 2.1M
20260502T12Z_MSC_CAPS_DewPointDepression_AGL-40m_RLatLon0.03_PT012H.grib2 2026-05-02 18:06 2.0M
20260502T12Z_MSC_CAPS_DewPointDepression_AGL-80m_RLatLon0.03_PT012H.grib2 2026-05-02 18:06 2.0M
20260502T12Z_MSC_CAPS_DewPointDepression_IsbL-0050_RLatLon0.03_PT012H.grib2 2026-05-02 18:06 13K
20260502T12Z_MSC_CAPS_DewPointDepression_IsbL-0100_RLatLon0.03_PT012H.grib2 2026-05-02 18:06 103K
20260502T12Z_MSC_CAPS_DewPointDepression_IsbL-0150_RLatLon0.03_PT012H.grib2 2026-05-02 18:06 111K
20260502T12Z_MSC_CAPS_DewPointDepression_IsbL-0175_RLatLon0.03_PT012H.grib2 2026-05-02 18:06 243K
20260502T12Z_MSC_CAPS_DewPointDepression_IsbL-0200_RLatLon0.03_PT012H.grib2 2026-05-02 18:06 385K
20260502T12Z_MSC_CAPS_DewPointDepression_IsbL-0225_RLatLon0.03_PT012H.grib2 2026-05-02 18:06 627K
20260502T12Z_MSC_CAPS_DewPointDepression_IsbL-0250_RLatLon0.03_PT012H.grib2 2026-05-02 18:06 837K
20260502T12Z_MSC_CAPS_DewPointDepression_IsbL-0275_RLatLon0.03_PT012H.grib2 2026-05-02 18:06 1.0M
20260502T12Z_MSC_CAPS_DewPointDepression_IsbL-0300_RLatLon0.03_PT012H.grib2 2026-05-02 18:06 1.0M
20260502T12Z_MSC_CAPS_DewPointDepression_IsbL-0350_RLatLon0.03_PT012H.grib2 2026-05-02 18:06 1.1M
20260502T12Z_MSC_CAPS_DewPointDepression_IsbL-0400_RLatLon0.03_PT012H.grib2 2026-05-02 18:06 1.1M
20260502T12Z_MSC_CAPS_DewPointDepression_IsbL-0450_RLatLon0.03_PT012H.grib2 2026-05-02 18:06 1.1M
20260502T12Z_MSC_CAPS_DewPointDepression_IsbL-0500_RLatLon0.03_PT012H.grib2 2026-05-02 18:06 1.1M
20260502T12Z_MSC_CAPS_DewPointDepression_IsbL-0550_RLatLon0.03_PT012H.grib2 2026-05-02 18:06 1.1M
20260502T12Z_MSC_CAPS_DewPointDepression_IsbL-0600_RLatLon0.03_PT012H.grib2 2026-05-02 18:06 1.2M
20260502T12Z_MSC_CAPS_DewPointDepression_IsbL-0650_RLatLon0.03_PT012H.grib2 2026-05-02 18:06 1.2M
20260502T12Z_MSC_CAPS_DewPointDepression_IsbL-0700_RLatLon0.03_PT012H.grib2 2026-05-02 18:06 1.3M
20260502T12Z_MSC_CAPS_DewPointDepression_IsbL-0750_RLatLon0.03_PT012H.grib2 2026-05-02 18:06 1.3M
20260502T12Z_MSC_CAPS_DewPointDepression_IsbL-0800_RLatLon0.03_PT012H.grib2 2026-05-02 18:06 1.3M
20260502T12Z_MSC_CAPS_DewPointDepression_IsbL-0850_RLatLon0.03_PT012H.grib2 2026-05-02 18:06 1.3M
20260502T12Z_MSC_CAPS_DewPointDepression_IsbL-0875_RLatLon0.03_PT012H.grib2 2026-05-02 18:06 1.3M
20260502T12Z_MSC_CAPS_DewPointDepression_IsbL-0900_RLatLon0.03_PT012H.grib2 2026-05-02 18:06 1.3M
20260502T12Z_MSC_CAPS_DewPointDepression_IsbL-0925_RLatLon0.03_PT012H.grib2 2026-05-02 18:06 1.3M
20260502T12Z_MSC_CAPS_DewPointDepression_IsbL-0950_RLatLon0.03_PT012H.grib2 2026-05-02 18:06 1.3M
20260502T12Z_MSC_CAPS_DewPointDepression_IsbL-0970_RLatLon0.03_PT012H.grib2 2026-05-02 18:06 1.3M
20260502T12Z_MSC_CAPS_DewPointDepression_IsbL-0985_RLatLon0.03_PT012H.grib2 2026-05-02 18:06 1.3M
20260502T12Z_MSC_CAPS_DewPointDepression_IsbL-1000_RLatLon0.03_PT012H.grib2 2026-05-02 18:06 1.3M
20260502T12Z_MSC_CAPS_DewPointDepression_IsbL-1015_RLatLon0.03_PT012H.grib2 2026-05-02 18:06 1.3M
20260502T12Z_MSC_CAPS_DewPoint_AGL-120m_RLatLon0.03_PT012H.grib2 2026-05-02 18:06 3.6M
20260502T12Z_MSC_CAPS_DewPoint_AGL-2m_RLatLon0.03_PT012H.grib2 2026-05-02 18:06 1.7M
20260502T12Z_MSC_CAPS_DewPoint_AGL-40m_RLatLon0.03_PT012H.grib2 2026-05-02 18:06 3.6M
20260502T12Z_MSC_CAPS_DewPoint_AGL-80m_RLatLon0.03_PT012H.grib2 2026-05-02 18:06 3.6M
20260502T12Z_MSC_CAPS_DownwardLongwaveRadiationFlux-Accum_Sfc_RLatLon0.03_PT012H.grib2 2026-05-02 18:06 2.3M
20260502T12Z_MSC_CAPS_DownwardShortwaveRadiationFlux-Accum_NTAtm_RLatLon0.03_PT012H.grib2 2026-05-02 18:06 439K
20260502T12Z_MSC_CAPS_DownwardShortwaveRadiationFlux-Accum_Sfc_RLatLon0.03_PT012H.grib2 2026-05-02 18:06 2.7M
20260502T12Z_MSC_CAPS_FreezingRain-Accum_Sfc_RLatLon0.03_PT012H.grib2 2026-05-02 18:06 399K
20260502T12Z_MSC_CAPS_GeopotentialHeight_IsbL-0050_RLatLon0.03_PT012H.grib2 2026-05-02 18:06 639K
20260502T12Z_MSC_CAPS_GeopotentialHeight_IsbL-0100_RLatLon0.03_PT012H.grib2 2026-05-02 18:06 771K
20260502T12Z_MSC_CAPS_GeopotentialHeight_IsbL-0150_RLatLon0.03_PT012H.grib2 2026-05-02 18:06 729K
20260502T12Z_MSC_CAPS_GeopotentialHeight_IsbL-0175_RLatLon0.03_PT012H.grib2 2026-05-02 18:06 740K
20260502T12Z_MSC_CAPS_GeopotentialHeight_IsbL-0200_RLatLon0.03_PT012H.grib2 2026-05-02 18:06 748K
20260502T12Z_MSC_CAPS_GeopotentialHeight_IsbL-0225_RLatLon0.03_PT012H.grib2 2026-05-02 18:06 759K
20260502T12Z_MSC_CAPS_GeopotentialHeight_IsbL-0250_RLatLon0.03_PT012H.grib2 2026-05-02 18:06 773K
20260502T12Z_MSC_CAPS_GeopotentialHeight_IsbL-0275_RLatLon0.03_PT012H.grib2 2026-05-02 18:06 783K
20260502T12Z_MSC_CAPS_GeopotentialHeight_IsbL-0300_RLatLon0.03_PT012H.grib2 2026-05-02 18:06 787K
20260502T12Z_MSC_CAPS_GeopotentialHeight_IsbL-0350_RLatLon0.03_PT012H.grib2 2026-05-02 18:06 785K
20260502T12Z_MSC_CAPS_GeopotentialHeight_IsbL-0400_RLatLon0.03_PT012H.grib2 2026-05-02 18:06 783K
20260502T12Z_MSC_CAPS_GeopotentialHeight_IsbL-0450_RLatLon0.03_PT012H.grib2 2026-05-02 18:06 769K
20260502T12Z_MSC_CAPS_GeopotentialHeight_IsbL-0500_RLatLon0.03_PT012H.grib2 2026-05-02 18:06 760K
20260502T12Z_MSC_CAPS_GeopotentialHeight_IsbL-0550_RLatLon0.03_PT012H.grib2 2026-05-02 18:06 751K
20260502T12Z_MSC_CAPS_GeopotentialHeight_IsbL-0600_RLatLon0.03_PT012H.grib2 2026-05-02 18:06 635K
20260502T12Z_MSC_CAPS_GeopotentialHeight_IsbL-0650_RLatLon0.03_PT012H.grib2 2026-05-02 18:06 635K
20260502T12Z_MSC_CAPS_GeopotentialHeight_IsbL-0700_RLatLon0.03_PT012H.grib2 2026-05-02 18:06 633K
20260502T12Z_MSC_CAPS_GeopotentialHeight_IsbL-0750_RLatLon0.03_PT012H.grib2 2026-05-02 18:06 816K
20260502T12Z_MSC_CAPS_GeopotentialHeight_IsbL-0800_RLatLon0.03_PT012H.grib2 2026-05-02 18:06 819K
20260502T12Z_MSC_CAPS_GeopotentialHeight_IsbL-0850_RLatLon0.03_PT012H.grib2 2026-05-02 18:06 827K
20260502T12Z_MSC_CAPS_GeopotentialHeight_IsbL-0875_RLatLon0.03_PT012H.grib2 2026-05-02 18:06 833K
20260502T12Z_MSC_CAPS_GeopotentialHeight_IsbL-0900_RLatLon0.03_PT012H.grib2 2026-05-02 18:06 839K
20260502T12Z_MSC_CAPS_GeopotentialHeight_IsbL-0925_RLatLon0.03_PT012H.grib2 2026-05-02 18:06 849K
20260502T12Z_MSC_CAPS_GeopotentialHeight_IsbL-0950_RLatLon0.03_PT012H.grib2 2026-05-02 18:06 858K
20260502T12Z_MSC_CAPS_GeopotentialHeight_IsbL-0970_RLatLon0.03_PT012H.grib2 2026-05-02 18:06 868K
20260502T12Z_MSC_CAPS_GeopotentialHeight_IsbL-0985_RLatLon0.03_PT012H.grib2 2026-05-02 18:06 876K
20260502T12Z_MSC_CAPS_GeopotentialHeight_IsbL-1000_RLatLon0.03_PT012H.grib2 2026-05-02 18:06 884K
20260502T12Z_MSC_CAPS_GeopotentialHeight_IsbL-1015_RLatLon0.03_PT012H.grib2 2026-05-02 18:06 890K
20260502T12Z_MSC_CAPS_GeopotentialHeight_Sfc_RLatLon0.03_PT012H.grib2 2026-05-02 18:06 1.0M
20260502T12Z_MSC_CAPS_IcePellets-Accum_Sfc_RLatLon0.03_PT012H.grib2 2026-05-02 18:06 43K
20260502T12Z_MSC_CAPS_LatentHeatNetFlux_Sfc_RLatLon0.03_PT012H.grib2 2026-05-02 18:06 1.9M
20260502T12Z_MSC_CAPS_LiftedIndex-MU-VT_IsbL-0500_RLatLon0.03_PT012H.grib2 2026-05-02 18:06 3.3M
20260502T12Z_MSC_CAPS_MixedLayerThickness_Sfc_RLatLon0.03_PT012H.nc 2026-05-02 18:11 16M
20260502T12Z_MSC_CAPS_NetLongwaveRadiationFlux-Accum_Sfc_RLatLon0.03_PT012H.grib2 2026-05-02 18:06 2.6M
20260502T12Z_MSC_CAPS_NetShortwaveRadiationFlux-Accum_Sfc_RLatLon0.03_PT012H.grib2 2026-05-02 18:06 2.7M
20260502T12Z_MSC_CAPS_PlanetaryBoundaryLayerHeight_Sfc_RLatLon0.03_PT012H.grib2 2026-05-02 18:06 2.9M
20260502T12Z_MSC_CAPS_Precip-Accum_Sfc_RLatLon0.03_PT012H.grib2 2026-05-02 18:06 3.6M
20260502T12Z_MSC_CAPS_PrecipRate_Sfc_RLatLon0.03_PT012H.grib2 2026-05-02 18:06 535K
20260502T12Z_MSC_CAPS_PrecipType-Instant_Sfc_RLatLon0.03_PT012H.grib2 2026-05-02 18:06 1.7M
20260502T12Z_MSC_CAPS_Pressure_MSL_RLatLon0.03_PT012H.grib2 2026-05-02 18:06 770K
20260502T12Z_MSC_CAPS_Pressure_Sfc_RLatLon0.03_PT012H.grib2 2026-05-02 18:06 1.2M
20260502T12Z_MSC_CAPS_RadiativeTemp_Sfc_RLatLon0.03_PT012H.grib2 2026-05-02 18:06 2.1M
20260502T12Z_MSC_CAPS_Rain-Accum_Sfc_RLatLon0.03_PT012H.grib2 2026-05-02 18:06 1.8M
20260502T12Z_MSC_CAPS_RelativeHumidity_AGL-120m_RLatLon0.03_PT012H.grib2 2026-05-02 18:06 2.8M
20260502T12Z_MSC_CAPS_RelativeHumidity_AGL-2m_RLatLon0.03_PT012H.grib2 2026-05-02 18:06 2.9M
20260502T12Z_MSC_CAPS_RelativeHumidity_AGL-40m_RLatLon0.03_PT012H.grib2 2026-05-02 18:06 2.8M
20260502T12Z_MSC_CAPS_RelativeHumidity_AGL-80m_RLatLon0.03_PT012H.grib2 2026-05-02 18:06 2.8M
20260502T12Z_MSC_CAPS_RelativeHumidity_IsbL-0050_RLatLon0.03_PT012H.grib2 2026-05-02 18:06 721K
20260502T12Z_MSC_CAPS_RelativeHumidity_IsbL-0100_RLatLon0.03_PT012H.grib2 2026-05-02 18:06 856K
20260502T12Z_MSC_CAPS_RelativeHumidity_IsbL-0150_RLatLon0.03_PT012H.grib2 2026-05-02 18:06 364K
20260502T12Z_MSC_CAPS_RelativeHumidity_IsbL-0175_RLatLon0.03_PT012H.grib2 2026-05-02 18:06 480K
20260502T12Z_MSC_CAPS_RelativeHumidity_IsbL-0200_RLatLon0.03_PT012H.grib2 2026-05-02 18:06 672K
20260502T12Z_MSC_CAPS_RelativeHumidity_IsbL-0225_RLatLon0.03_PT012H.grib2 2026-05-02 18:06 876K
20260502T12Z_MSC_CAPS_RelativeHumidity_IsbL-0250_RLatLon0.03_PT012H.grib2 2026-05-02 18:06 1.1M
20260502T12Z_MSC_CAPS_RelativeHumidity_IsbL-0275_RLatLon0.03_PT012H.grib2 2026-05-02 18:06 1.4M
20260502T12Z_MSC_CAPS_RelativeHumidity_IsbL-0300_RLatLon0.03_PT012H.grib2 2026-05-02 18:06 1.7M
20260502T12Z_MSC_CAPS_RelativeHumidity_IsbL-0350_RLatLon0.03_PT012H.grib2 2026-05-02 18:06 1.9M
20260502T12Z_MSC_CAPS_RelativeHumidity_IsbL-0400_RLatLon0.03_PT012H.grib2 2026-05-02 18:06 1.9M
20260502T12Z_MSC_CAPS_RelativeHumidity_IsbL-0450_RLatLon0.03_PT012H.grib2 2026-05-02 18:06 1.9M
20260502T12Z_MSC_CAPS_RelativeHumidity_IsbL-0500_RLatLon0.03_PT012H.grib2 2026-05-02 18:06 1.9M
20260502T12Z_MSC_CAPS_RelativeHumidity_IsbL-0550_RLatLon0.03_PT012H.grib2 2026-05-02 18:06 2.1M
20260502T12Z_MSC_CAPS_RelativeHumidity_IsbL-0600_RLatLon0.03_PT012H.grib2 2026-05-02 18:06 2.1M
20260502T12Z_MSC_CAPS_RelativeHumidity_IsbL-0650_RLatLon0.03_PT012H.grib2 2026-05-02 18:06 2.3M
20260502T12Z_MSC_CAPS_RelativeHumidity_IsbL-0700_RLatLon0.03_PT012H.grib2 2026-05-02 18:06 2.3M
20260502T12Z_MSC_CAPS_RelativeHumidity_IsbL-0750_RLatLon0.03_PT012H.grib2 2026-05-02 18:06 2.3M
20260502T12Z_MSC_CAPS_RelativeHumidity_IsbL-0800_RLatLon0.03_PT012H.grib2 2026-05-02 18:06 2.4M
20260502T12Z_MSC_CAPS_RelativeHumidity_IsbL-0850_RLatLon0.03_PT012H.grib2 2026-05-02 18:06 2.5M
20260502T12Z_MSC_CAPS_RelativeHumidity_IsbL-0875_RLatLon0.03_PT012H.grib2 2026-05-02 18:06 2.6M
20260502T12Z_MSC_CAPS_RelativeHumidity_IsbL-0900_RLatLon0.03_PT012H.grib2 2026-05-02 18:06 2.6M
20260502T12Z_MSC_CAPS_RelativeHumidity_IsbL-0925_RLatLon0.03_PT012H.grib2 2026-05-02 18:06 2.6M
20260502T12Z_MSC_CAPS_RelativeHumidity_IsbL-0950_RLatLon0.03_PT012H.grib2 2026-05-02 18:06 2.7M
20260502T12Z_MSC_CAPS_RelativeHumidity_IsbL-0970_RLatLon0.03_PT012H.grib2 2026-05-02 18:06 2.7M
20260502T12Z_MSC_CAPS_RelativeHumidity_IsbL-0985_RLatLon0.03_PT012H.grib2 2026-05-02 18:06 2.8M
20260502T12Z_MSC_CAPS_RelativeHumidity_IsbL-1000_RLatLon0.03_PT012H.grib2 2026-05-02 18:06 2.8M
20260502T12Z_MSC_CAPS_RelativeHumidity_IsbL-1015_RLatLon0.03_PT012H.grib2 2026-05-02 18:06 2.8M
20260502T12Z_MSC_CAPS_Runoff-Accum_Sfc_RLatLon0.03_PT012H.grib2 2026-05-02 18:06 391K
20260502T12Z_MSC_CAPS_SeaIceAreaFraction_Sfc_RLatLon0.03_PT012H.nc 2026-05-02 18:11 15M
20260502T12Z_MSC_CAPS_SeaIceCompressiveStrength_Sfc_RLatLon0.03_PT012H.nc 2026-05-02 18:11 15M
20260502T12Z_MSC_CAPS_SeaIceDivergence_Sfc_RLatLon0.03_PT012H.nc 2026-05-02 18:11 15M
20260502T12Z_MSC_CAPS_SeaIceInternalPressure_Sfc_RLatLon0.03_PT012H.nc 2026-05-02 18:11 15M
20260502T12Z_MSC_CAPS_SeaIceShear_Sfc_RLatLon0.03_PT012H.nc 2026-05-02 18:11 14M
20260502T12Z_MSC_CAPS_SeaIceSnowTemp_Sfc_RLatLon0.03_PT012H.nc 2026-05-02 18:11 14M
20260502T12Z_MSC_CAPS_SeaIceSnowVolume_Sfc_RLatLon0.03_PT012H.nc 2026-05-02 18:11 15M
20260502T12Z_MSC_CAPS_SeaIceVelocityX_Sfc_RLatLon0.03_PT012H.nc 2026-05-02 18:11 15M
20260502T12Z_MSC_CAPS_SeaIceVelocityY_Sfc_RLatLon0.03_PT012H.nc 2026-05-02 18:11 15M
20260502T12Z_MSC_CAPS_SeaIceVolume_Sfc_RLatLon0.03_PT012H.nc 2026-05-02 18:11 15M
20260502T12Z_MSC_CAPS_SeaSurfaceHeight_Sfc_RLatLon0.03_PT012H.nc 2026-05-02 18:11 16M
20260502T12Z_MSC_CAPS_SeaWaterSalinity_DBS-0.5m_RLatLon0.03_PT012H.nc 2026-05-02 18:11 16M
20260502T12Z_MSC_CAPS_SeaWaterSalinity_DBS-all_RLatLon0.03_PT012H.nc 2026-05-02 18:11 107M
20260502T12Z_MSC_CAPS_SeaWaterTemp_DBS-0.5m_RLatLon0.03_PT012H.nc 2026-05-02 18:11 14M
20260502T12Z_MSC_CAPS_SeaWaterTemp_DBS-all_RLatLon0.03_PT012H.nc 2026-05-02 18:11 88M
20260502T12Z_MSC_CAPS_SeaWaterVelocityX_DBS-0.5m_RLatLon0.03_PT012H.nc 2026-05-02 18:11 17M
20260502T12Z_MSC_CAPS_SeaWaterVelocityX_DBS-all_RLatLon0.03_PT012H.nc 2026-05-02 18:11 200M
20260502T12Z_MSC_CAPS_SeaWaterVelocityY_DBS-0.5m_RLatLon0.03_PT012H.nc 2026-05-02 18:11 17M
20260502T12Z_MSC_CAPS_SeaWaterVelocityY_DBS-all_RLatLon0.03_PT012H.nc 2026-05-02 18:11 208M
20260502T12Z_MSC_CAPS_SensibleHeatNetFlux_Sfc_RLatLon0.03_PT012H.grib2 2026-05-02 18:06 2.2M
20260502T12Z_MSC_CAPS_ShowalterIndex_IsbL-0500_RLatLon0.03_PT012H.grib2 2026-05-02 18:06 4.3M
20260502T12Z_MSC_CAPS_Snow-Accum_Sfc_RLatLon0.03_PT012H.grib2 2026-05-02 18:06 2.8M
20260502T12Z_MSC_CAPS_SnowDensity_Sfc_RLatLon0.03_PT012H.grib2 2026-05-02 18:06 1.2M
20260502T12Z_MSC_CAPS_SnowDepthWaterEquivalent_Sfc_RLatLon0.03_PT012H.grib2 2026-05-02 18:06 671K
20260502T12Z_MSC_CAPS_SnowDepth_Sfc_RLatLon0.03_PT012H.grib2 2026-05-02 18:06 1.2M
20260502T12Z_MSC_CAPS_SoilTemp_DBS-0to10cm_RLatLon0.03_PT012H.grib2 2026-05-02 18:06 1.5M
20260502T12Z_MSC_CAPS_SoilTemp_Sfc_RLatLon0.03_PT012H.grib2 2026-05-02 18:06 1.8M
20260502T12Z_MSC_CAPS_SoilVolumetricIceContent_Sfc_RLatLon0.03_PT012H.grib2 2026-05-02 18:06 1.4M
20260502T12Z_MSC_CAPS_SoilVolumetricWaterContent_DBS-0to10cm_RLatLon0.03_PT012H.grib2 2026-05-02 18:06 1.2M
20260502T12Z_MSC_CAPS_SoilVolumetricWaterContent_DBS-0to1cm_RLatLon0.03_PT012H.grib2 2026-05-02 18:06 1.7M
20260502T12Z_MSC_CAPS_SpecificHumidity_AGL-120m_RLatLon0.03_PT012H.grib2 2026-05-02 18:06 1.4M
20260502T12Z_MSC_CAPS_SpecificHumidity_AGL-2m_RLatLon0.03_PT012H.grib2 2026-05-02 18:06 1.7M
20260502T12Z_MSC_CAPS_SpecificHumidity_AGL-40m_RLatLon0.03_PT012H.grib2 2026-05-02 18:06 1.4M
20260502T12Z_MSC_CAPS_SpecificHumidity_AGL-80m_RLatLon0.03_PT012H.grib2 2026-05-02 18:06 1.4M
20260502T12Z_MSC_CAPS_SpecificHumidity_IsbL-0050_RLatLon0.03_PT012H.grib2 2026-05-02 18:06 873K
20260502T12Z_MSC_CAPS_SpecificHumidity_IsbL-0100_RLatLon0.03_PT012H.grib2 2026-05-02 18:06 952K
20260502T12Z_MSC_CAPS_SpecificHumidity_IsbL-0150_RLatLon0.03_PT012H.grib2 2026-05-02 18:06 746K
20260502T12Z_MSC_CAPS_SpecificHumidity_IsbL-0175_RLatLon0.03_PT012H.grib2 2026-05-02 18:06 968K
20260502T12Z_MSC_CAPS_SpecificHumidity_IsbL-0200_RLatLon0.03_PT012H.grib2 2026-05-02 18:06 1.0M
20260502T12Z_MSC_CAPS_SpecificHumidity_IsbL-0225_RLatLon0.03_PT012H.grib2 2026-05-02 18:06 819K
20260502T12Z_MSC_CAPS_SpecificHumidity_IsbL-0250_RLatLon0.03_PT012H.grib2 2026-05-02 18:06 1.0M
20260502T12Z_MSC_CAPS_SpecificHumidity_IsbL-0275_RLatLon0.03_PT012H.grib2 2026-05-02 18:06 1.1M
20260502T12Z_MSC_CAPS_SpecificHumidity_IsbL-0300_RLatLon0.03_PT012H.grib2 2026-05-02 18:06 1.0M
20260502T12Z_MSC_CAPS_SpecificHumidity_IsbL-0350_RLatLon0.03_PT012H.grib2 2026-05-02 18:06 959K
20260502T12Z_MSC_CAPS_SpecificHumidity_IsbL-0400_RLatLon0.03_PT012H.grib2 2026-05-02 18:06 1.1M
20260502T12Z_MSC_CAPS_SpecificHumidity_IsbL-0450_RLatLon0.03_PT012H.grib2 2026-05-02 18:06 1.1M
20260502T12Z_MSC_CAPS_SpecificHumidity_IsbL-0500_RLatLon0.03_PT012H.grib2 2026-05-02 18:06 1.2M
20260502T12Z_MSC_CAPS_SpecificHumidity_IsbL-0550_RLatLon0.03_PT012H.grib2 2026-05-02 18:06 1.2M
20260502T12Z_MSC_CAPS_SpecificHumidity_IsbL-0600_RLatLon0.03_PT012H.grib2 2026-05-02 18:06 1.3M
20260502T12Z_MSC_CAPS_SpecificHumidity_IsbL-0650_RLatLon0.03_PT012H.grib2 2026-05-02 18:06 1.5M
20260502T12Z_MSC_CAPS_SpecificHumidity_IsbL-0700_RLatLon0.03_PT012H.grib2 2026-05-02 18:06 1.6M
20260502T12Z_MSC_CAPS_SpecificHumidity_IsbL-0750_RLatLon0.03_PT012H.grib2 2026-05-02 18:06 1.4M
20260502T12Z_MSC_CAPS_SpecificHumidity_IsbL-0800_RLatLon0.03_PT012H.grib2 2026-05-02 18:06 1.5M
20260502T12Z_MSC_CAPS_SpecificHumidity_IsbL-0850_RLatLon0.03_PT012H.grib2 2026-05-02 18:06 1.7M
20260502T12Z_MSC_CAPS_SpecificHumidity_IsbL-0875_RLatLon0.03_PT012H.grib2 2026-05-02 18:06 1.7M
20260502T12Z_MSC_CAPS_SpecificHumidity_IsbL-0900_RLatLon0.03_PT012H.grib2 2026-05-02 18:06 1.8M
20260502T12Z_MSC_CAPS_SpecificHumidity_IsbL-0925_RLatLon0.03_PT012H.grib2 2026-05-02 18:06 1.5M
20260502T12Z_MSC_CAPS_SpecificHumidity_IsbL-0950_RLatLon0.03_PT012H.grib2 2026-05-02 18:06 1.5M
20260502T12Z_MSC_CAPS_SpecificHumidity_IsbL-0970_RLatLon0.03_PT012H.grib2 2026-05-02 18:06 1.6M
20260502T12Z_MSC_CAPS_SpecificHumidity_IsbL-0985_RLatLon0.03_PT012H.grib2 2026-05-02 18:06 1.6M
20260502T12Z_MSC_CAPS_SpecificHumidity_IsbL-1000_RLatLon0.03_PT012H.grib2 2026-05-02 18:06 1.6M
20260502T12Z_MSC_CAPS_SpecificHumidity_IsbL-1015_RLatLon0.03_PT012H.grib2 2026-05-02 18:06 1.6M
20260502T12Z_MSC_CAPS_SpecificHumidity_Sfc_RLatLon0.03_PT012H.grib2 2026-05-02 18:06 2.0M
20260502T12Z_MSC_CAPS_StormRelativeHelicity_Sfc_RLatLon0.03_PT012H.grib2 2026-05-02 18:06 3.2M
20260502T12Z_MSC_CAPS_Thickness_IsbL-1000to0500_RLatLon0.03_PT012H.grib2 2026-05-02 18:06 473K
20260502T12Z_MSC_CAPS_TotalCloudCover_Sfc_RLatLon0.03_PT012H.grib2 2026-05-02 18:06 3.4M
20260502T12Z_MSC_CAPS_TurboclineDepth_Sfc_RLatLon0.03_PT012H.nc 2026-05-02 18:11 16M
20260502T12Z_MSC_CAPS_UpwardLongwaveRadiationFlux_NTAtm_RLatLon0.03_PT012H.grib2 2026-05-02 18:06 2.8M
20260502T12Z_MSC_CAPS_UpwardShortwaveRadiationFlux_NTAtm_RLatLon0.03_PT012H.grib2 2026-05-02 18:06 2.0M
20260502T12Z_MSC_CAPS_VerticalVelocity_IsbL-0250_RLatLon0.03_PT012H.grib2 2026-05-02 18:06 1.0M
20260502T12Z_MSC_CAPS_VerticalVelocity_IsbL-0500_RLatLon0.03_PT012H.grib2 2026-05-02 18:06 870K
20260502T12Z_MSC_CAPS_VerticalVelocity_IsbL-0700_RLatLon0.03_PT012H.grib2 2026-05-02 18:06 1.2M
20260502T12Z_MSC_CAPS_VerticalVelocity_IsbL-0850_RLatLon0.03_PT012H.grib2 2026-05-02 18:06 1.4M
20260502T12Z_MSC_CAPS_VerticalVelocity_IsbL-1000_RLatLon0.03_PT012H.grib2 2026-05-02 18:06 1.4M
20260502T12Z_MSC_CAPS_WindDir_AGL-10m_RLatLon0.03_PT012H.grib2 2026-05-02 18:06 2.3M
20260502T12Z_MSC_CAPS_WindDir_AGL-120m_RLatLon0.03_PT012H.grib2 2026-05-02 18:06 1.2M
20260502T12Z_MSC_CAPS_WindDir_AGL-40m_RLatLon0.03_PT012H.grib2 2026-05-02 18:06 1.3M
20260502T12Z_MSC_CAPS_WindDir_AGL-80m_RLatLon0.03_PT012H.grib2 2026-05-02 18:06 1.2M
20260502T12Z_MSC_CAPS_WindDir_IsbL-0050_RLatLon0.03_PT012H.grib2 2026-05-02 18:06 1.0M
20260502T12Z_MSC_CAPS_WindDir_IsbL-0100_RLatLon0.03_PT012H.grib2 2026-05-02 18:06 1.1M
20260502T12Z_MSC_CAPS_WindDir_IsbL-0150_RLatLon0.03_PT012H.grib2 2026-05-02 18:06 1.0M
20260502T12Z_MSC_CAPS_WindDir_IsbL-0175_RLatLon0.03_PT012H.grib2 2026-05-02 18:06 1.1M
20260502T12Z_MSC_CAPS_WindDir_IsbL-0200_RLatLon0.03_PT012H.grib2 2026-05-02 18:06 1.1M
20260502T12Z_MSC_CAPS_WindDir_IsbL-0225_RLatLon0.03_PT012H.grib2 2026-05-02 18:06 1.1M
20260502T12Z_MSC_CAPS_WindDir_IsbL-0250_RLatLon0.03_PT012H.grib2 2026-05-02 18:06 1.1M
20260502T12Z_MSC_CAPS_WindDir_IsbL-0275_RLatLon0.03_PT012H.grib2 2026-05-02 18:06 1.0M
20260502T12Z_MSC_CAPS_WindDir_IsbL-0300_RLatLon0.03_PT012H.grib2 2026-05-02 18:06 1.0M
20260502T12Z_MSC_CAPS_WindDir_IsbL-0350_RLatLon0.03_PT012H.grib2 2026-05-02 18:06 1.1M
20260502T12Z_MSC_CAPS_WindDir_IsbL-0400_RLatLon0.03_PT012H.grib2 2026-05-02 18:06 1.1M
20260502T12Z_MSC_CAPS_WindDir_IsbL-0450_RLatLon0.03_PT012H.grib2 2026-05-02 18:06 1.2M
20260502T12Z_MSC_CAPS_WindDir_IsbL-0500_RLatLon0.03_PT012H.grib2 2026-05-02 18:06 1.2M
20260502T12Z_MSC_CAPS_WindDir_IsbL-0550_RLatLon0.03_PT012H.grib2 2026-05-02 18:06 1.2M
20260502T12Z_MSC_CAPS_WindDir_IsbL-0600_RLatLon0.03_PT012H.grib2 2026-05-02 18:06 1.2M
20260502T12Z_MSC_CAPS_WindDir_IsbL-0650_RLatLon0.03_PT012H.grib2 2026-05-02 18:06 1.3M
20260502T12Z_MSC_CAPS_WindDir_IsbL-0700_RLatLon0.03_PT012H.grib2 2026-05-02 18:06 1.4M
20260502T12Z_MSC_CAPS_WindDir_IsbL-0750_RLatLon0.03_PT012H.grib2 2026-05-02 18:06 1.5M
20260502T12Z_MSC_CAPS_WindDir_IsbL-0800_RLatLon0.03_PT012H.grib2 2026-05-02 18:06 1.6M
20260502T12Z_MSC_CAPS_WindDir_IsbL-0850_RLatLon0.03_PT012H.grib2 2026-05-02 18:06 1.7M
20260502T12Z_MSC_CAPS_WindDir_IsbL-0875_RLatLon0.03_PT012H.grib2 2026-05-02 18:06 1.7M
20260502T12Z_MSC_CAPS_WindDir_IsbL-0900_RLatLon0.03_PT012H.grib2 2026-05-02 18:06 1.8M
20260502T12Z_MSC_CAPS_WindDir_IsbL-0925_RLatLon0.03_PT012H.grib2 2026-05-02 18:06 1.9M
20260502T12Z_MSC_CAPS_WindDir_IsbL-0950_RLatLon0.03_PT012H.grib2 2026-05-02 18:06 2.0M
20260502T12Z_MSC_CAPS_WindDir_IsbL-0970_RLatLon0.03_PT012H.grib2 2026-05-02 18:06 2.0M
20260502T12Z_MSC_CAPS_WindDir_IsbL-0985_RLatLon0.03_PT012H.grib2 2026-05-02 18:06 2.1M
20260502T12Z_MSC_CAPS_WindDir_IsbL-1000_RLatLon0.03_PT012H.grib2 2026-05-02 18:06 2.2M
20260502T12Z_MSC_CAPS_WindDir_IsbL-1015_RLatLon0.03_PT012H.grib2 2026-05-02 18:06 2.2M
20260502T12Z_MSC_CAPS_WindGust-Max_AGL-10m_RLatLon0.03_PT012H.grib2 2026-05-02 18:06 2.6M
20260502T12Z_MSC_CAPS_WindGust-Min_AGL-10m_RLatLon0.03_PT012H.grib2 2026-05-02 18:06 2.4M
20260502T12Z_MSC_CAPS_WindGust_AGL-10m_RLatLon0.03_PT012H.grib2 2026-05-02 18:06 2.5M
20260502T12Z_MSC_CAPS_WindSpeed_AGL-10m_RLatLon0.03_PT012H.grib2 2026-05-02 18:06 2.1M
20260502T12Z_MSC_CAPS_WindSpeed_AGL-120m_RLatLon0.03_PT012H.grib2 2026-05-02 18:06 1.1M
20260502T12Z_MSC_CAPS_WindSpeed_AGL-40m_RLatLon0.03_PT012H.grib2 2026-05-02 18:06 1.2M
20260502T12Z_MSC_CAPS_WindSpeed_AGL-80m_RLatLon0.03_PT012H.grib2 2026-05-02 18:06 1.1M
20260502T12Z_MSC_CAPS_WindSpeed_IsbL-0050_RLatLon0.03_PT012H.grib2 2026-05-02 18:06 922K
20260502T12Z_MSC_CAPS_WindSpeed_IsbL-0100_RLatLon0.03_PT012H.grib2 2026-05-02 18:06 1.0M
20260502T12Z_MSC_CAPS_WindSpeed_IsbL-0150_RLatLon0.03_PT012H.grib2 2026-05-02 18:06 1.1M
20260502T12Z_MSC_CAPS_WindSpeed_IsbL-0175_RLatLon0.03_PT012H.grib2 2026-05-02 18:06 1.2M
20260502T12Z_MSC_CAPS_WindSpeed_IsbL-0200_RLatLon0.03_PT012H.grib2 2026-05-02 18:06 942K
20260502T12Z_MSC_CAPS_WindSpeed_IsbL-0225_RLatLon0.03_PT012H.grib2 2026-05-02 18:06 1.0M
20260502T12Z_MSC_CAPS_WindSpeed_IsbL-0250_RLatLon0.03_PT012H.grib2 2026-05-02 18:06 1.0M
20260502T12Z_MSC_CAPS_WindSpeed_IsbL-0275_RLatLon0.03_PT012H.grib2 2026-05-02 18:06 1.0M
20260502T12Z_MSC_CAPS_WindSpeed_IsbL-0300_RLatLon0.03_PT012H.grib2 2026-05-02 18:06 1.0M
20260502T12Z_MSC_CAPS_WindSpeed_IsbL-0350_RLatLon0.03_PT012H.grib2 2026-05-02 18:06 1.0M
20260502T12Z_MSC_CAPS_WindSpeed_IsbL-0400_RLatLon0.03_PT012H.grib2 2026-05-02 18:06 1.0M
20260502T12Z_MSC_CAPS_WindSpeed_IsbL-0450_RLatLon0.03_PT012H.grib2 2026-05-02 18:06 1.0M
20260502T12Z_MSC_CAPS_WindSpeed_IsbL-0500_RLatLon0.03_PT012H.grib2 2026-05-02 18:06 1.4M
20260502T12Z_MSC_CAPS_WindSpeed_IsbL-0550_RLatLon0.03_PT012H.grib2 2026-05-02 18:06 1.3M
20260502T12Z_MSC_CAPS_WindSpeed_IsbL-0600_RLatLon0.03_PT012H.grib2 2026-05-02 18:06 1.4M
20260502T12Z_MSC_CAPS_WindSpeed_IsbL-0650_RLatLon0.03_PT012H.grib2 2026-05-02 18:06 1.4M
20260502T12Z_MSC_CAPS_WindSpeed_IsbL-0700_RLatLon0.03_PT012H.grib2 2026-05-02 18:06 1.4M
20260502T12Z_MSC_CAPS_WindSpeed_IsbL-0750_RLatLon0.03_PT012H.grib2 2026-05-02 18:06 1.5M
20260502T12Z_MSC_CAPS_WindSpeed_IsbL-0800_RLatLon0.03_PT012H.grib2 2026-05-02 18:06 1.6M
20260502T12Z_MSC_CAPS_WindSpeed_IsbL-0850_RLatLon0.03_PT012H.grib2 2026-05-02 18:06 1.7M
20260502T12Z_MSC_CAPS_WindSpeed_IsbL-0875_RLatLon0.03_PT012H.grib2 2026-05-02 18:06 1.7M
20260502T12Z_MSC_CAPS_WindSpeed_IsbL-0900_RLatLon0.03_PT012H.grib2 2026-05-02 18:06 1.8M
20260502T12Z_MSC_CAPS_WindSpeed_IsbL-0925_RLatLon0.03_PT012H.grib2 2026-05-02 18:06 1.8M
20260502T12Z_MSC_CAPS_WindSpeed_IsbL-0950_RLatLon0.03_PT012H.grib2 2026-05-02 18:06 1.9M
20260502T12Z_MSC_CAPS_WindSpeed_IsbL-0970_RLatLon0.03_PT012H.grib2 2026-05-02 18:06 2.0M
20260502T12Z_MSC_CAPS_WindSpeed_IsbL-0985_RLatLon0.03_PT012H.grib2 2026-05-02 18:06 2.0M
20260502T12Z_MSC_CAPS_WindSpeed_IsbL-1000_RLatLon0.03_PT012H.grib2 2026-05-02 18:06 2.0M
20260502T12Z_MSC_CAPS_WindSpeed_IsbL-1015_RLatLon0.03_PT012H.grib2 2026-05-02 18:06 2.1M
20260502T12Z_MSC_CAPS_WindU_AGL-10m_RLatLon0.03_PT012H.grib2 2026-05-02 18:06 2.0M
20260502T12Z_MSC_CAPS_WindU_AGL-120m_RLatLon0.03_PT012H.grib2 2026-05-02 18:06 1.2M
20260502T12Z_MSC_CAPS_WindU_AGL-40m_RLatLon0.03_PT012H.grib2 2026-05-02 18:06 1.2M
20260502T12Z_MSC_CAPS_WindU_AGL-80m_RLatLon0.03_PT012H.grib2 2026-05-02 18:06 1.2M
20260502T12Z_MSC_CAPS_WindU_IsbL-0050_RLatLon0.03_PT012H.grib2 2026-05-02 18:06 773K
20260502T12Z_MSC_CAPS_WindU_IsbL-0100_RLatLon0.03_PT012H.grib2 2026-05-02 18:06 1.0M
20260502T12Z_MSC_CAPS_WindU_IsbL-0150_RLatLon0.03_PT012H.grib2 2026-05-02 18:06 724K
20260502T12Z_MSC_CAPS_WindU_IsbL-0175_RLatLon0.03_PT012H.grib2 2026-05-02 18:06 859K
20260502T12Z_MSC_CAPS_WindU_IsbL-0200_RLatLon0.03_PT012H.grib2 2026-05-02 18:06 875K
20260502T12Z_MSC_CAPS_WindU_IsbL-0225_RLatLon0.03_PT012H.grib2 2026-05-02 18:06 895K
20260502T12Z_MSC_CAPS_WindU_IsbL-0250_RLatLon0.03_PT012H.grib2 2026-05-02 18:06 700K
20260502T12Z_MSC_CAPS_WindU_IsbL-0275_RLatLon0.03_PT012H.grib2 2026-05-02 18:06 710K
20260502T12Z_MSC_CAPS_WindU_IsbL-0300_RLatLon0.03_PT012H.grib2 2026-05-02 18:06 716K
20260502T12Z_MSC_CAPS_WindU_IsbL-0350_RLatLon0.03_PT012H.grib2 2026-05-02 18:06 728K
20260502T12Z_MSC_CAPS_WindU_IsbL-0400_RLatLon0.03_PT012H.grib2 2026-05-02 18:06 950K
20260502T12Z_MSC_CAPS_WindU_IsbL-0450_RLatLon0.03_PT012H.grib2 2026-05-02 18:06 968K
20260502T12Z_MSC_CAPS_WindU_IsbL-0500_RLatLon0.03_PT012H.grib2 2026-05-02 18:06 1.0M
20260502T12Z_MSC_CAPS_WindU_IsbL-0550_RLatLon0.03_PT012H.grib2 2026-05-02 18:06 903K
20260502T12Z_MSC_CAPS_WindU_IsbL-0600_RLatLon0.03_PT012H.grib2 2026-05-02 18:06 939K
20260502T12Z_MSC_CAPS_WindU_IsbL-0650_RLatLon0.03_PT012H.grib2 2026-05-02 18:06 1.0M
20260502T12Z_MSC_CAPS_WindU_IsbL-0700_RLatLon0.03_PT012H.grib2 2026-05-02 18:06 1.0M
20260502T12Z_MSC_CAPS_WindU_IsbL-0750_RLatLon0.03_PT012H.grib2 2026-05-02 18:06 1.3M
20260502T12Z_MSC_CAPS_WindU_IsbL-0800_RLatLon0.03_PT012H.grib2 2026-05-02 18:06 1.4M
20260502T12Z_MSC_CAPS_WindU_IsbL-0850_RLatLon0.03_PT012H.grib2 2026-05-02 18:06 1.2M
20260502T12Z_MSC_CAPS_WindU_IsbL-0875_RLatLon0.03_PT012H.grib2 2026-05-02 18:06 1.2M
20260502T12Z_MSC_CAPS_WindU_IsbL-0900_RLatLon0.03_PT012H.grib2 2026-05-02 18:06 1.3M
20260502T12Z_MSC_CAPS_WindU_IsbL-0925_RLatLon0.03_PT012H.grib2 2026-05-02 18:06 1.3M
20260502T12Z_MSC_CAPS_WindU_IsbL-0950_RLatLon0.03_PT012H.grib2 2026-05-02 18:06 1.4M
20260502T12Z_MSC_CAPS_WindU_IsbL-0970_RLatLon0.03_PT012H.grib2 2026-05-02 18:06 1.8M
20260502T12Z_MSC_CAPS_WindU_IsbL-0985_RLatLon0.03_PT012H.grib2 2026-05-02 18:06 1.8M
20260502T12Z_MSC_CAPS_WindU_IsbL-1000_RLatLon0.03_PT012H.grib2 2026-05-02 18:06 1.8M
20260502T12Z_MSC_CAPS_WindU_IsbL-1015_RLatLon0.03_PT012H.grib2 2026-05-02 18:06 2.0M
20260502T12Z_MSC_CAPS_WindV_AGL-10m_RLatLon0.03_PT012H.grib2 2026-05-02 18:06 2.0M
20260502T12Z_MSC_CAPS_WindV_AGL-120m_RLatLon0.03_PT012H.grib2 2026-05-02 18:06 1.1M
20260502T12Z_MSC_CAPS_WindV_AGL-40m_RLatLon0.03_PT012H.grib2 2026-05-02 18:06 1.2M
20260502T12Z_MSC_CAPS_WindV_AGL-80m_RLatLon0.03_PT012H.grib2 2026-05-02 18:06 1.1M
20260502T12Z_MSC_CAPS_WindV_IsbL-0050_RLatLon0.03_PT012H.grib2 2026-05-02 18:06 947K
20260502T12Z_MSC_CAPS_WindV_IsbL-0100_RLatLon0.03_PT012H.grib2 2026-05-02 18:06 1.0M
20260502T12Z_MSC_CAPS_WindV_IsbL-0150_RLatLon0.03_PT012H.grib2 2026-05-02 18:06 726K
20260502T12Z_MSC_CAPS_WindV_IsbL-0175_RLatLon0.03_PT012H.grib2 2026-05-02 18:06 861K
20260502T12Z_MSC_CAPS_WindV_IsbL-0200_RLatLon0.03_PT012H.grib2 2026-05-02 18:06 876K
20260502T12Z_MSC_CAPS_WindV_IsbL-0225_RLatLon0.03_PT012H.grib2 2026-05-02 18:06 893K
20260502T12Z_MSC_CAPS_WindV_IsbL-0250_RLatLon0.03_PT012H.grib2 2026-05-02 18:06 915K
20260502T12Z_MSC_CAPS_WindV_IsbL-0275_RLatLon0.03_PT012H.grib2 2026-05-02 18:06 922K
20260502T12Z_MSC_CAPS_WindV_IsbL-0300_RLatLon0.03_PT012H.grib2 2026-05-02 18:06 929K
20260502T12Z_MSC_CAPS_WindV_IsbL-0350_RLatLon0.03_PT012H.grib2 2026-05-02 18:06 943K
20260502T12Z_MSC_CAPS_WindV_IsbL-0400_RLatLon0.03_PT012H.grib2 2026-05-02 18:06 951K
20260502T12Z_MSC_CAPS_WindV_IsbL-0450_RLatLon0.03_PT012H.grib2 2026-05-02 18:06 969K
20260502T12Z_MSC_CAPS_WindV_IsbL-0500_RLatLon0.03_PT012H.grib2 2026-05-02 18:06 1.0M
20260502T12Z_MSC_CAPS_WindV_IsbL-0550_RLatLon0.03_PT012H.grib2 2026-05-02 18:06 906K
20260502T12Z_MSC_CAPS_WindV_IsbL-0600_RLatLon0.03_PT012H.grib2 2026-05-02 18:06 937K
20260502T12Z_MSC_CAPS_WindV_IsbL-0650_RLatLon0.03_PT012H.grib2 2026-05-02 18:06 972K
20260502T12Z_MSC_CAPS_WindV_IsbL-0700_RLatLon0.03_PT012H.grib2 2026-05-02 18:06 1.3M
20260502T12Z_MSC_CAPS_WindV_IsbL-0750_RLatLon0.03_PT012H.grib2 2026-05-02 18:06 1.3M
20260502T12Z_MSC_CAPS_WindV_IsbL-0800_RLatLon0.03_PT012H.grib2 2026-05-02 18:06 1.4M
20260502T12Z_MSC_CAPS_WindV_IsbL-0850_RLatLon0.03_PT012H.grib2 2026-05-02 18:06 1.5M
20260502T12Z_MSC_CAPS_WindV_IsbL-0875_RLatLon0.03_PT012H.grib2 2026-05-02 18:06 1.5M
20260502T12Z_MSC_CAPS_WindV_IsbL-0900_RLatLon0.03_PT012H.grib2 2026-05-02 18:06 1.6M
20260502T12Z_MSC_CAPS_WindV_IsbL-0925_RLatLon0.03_PT012H.grib2 2026-05-02 18:06 1.6M
20260502T12Z_MSC_CAPS_WindV_IsbL-0950_RLatLon0.03_PT012H.grib2 2026-05-02 18:06 1.7M
20260502T12Z_MSC_CAPS_WindV_IsbL-0970_RLatLon0.03_PT012H.grib2 2026-05-02 18:06 1.7M
20260502T12Z_MSC_CAPS_WindV_IsbL-0985_RLatLon0.03_PT012H.grib2 2026-05-02 18:06 1.8M
20260502T12Z_MSC_CAPS_WindV_IsbL-1000_RLatLon0.03_PT012H.grib2 2026-05-02 18:06 1.8M
20260502T12Z_MSC_CAPS_WindV_IsbL-1015_RLatLon0.03_PT012H.grib2 2026-05-02 18:06 2.0M